Startpagina
METAR-TAF:

METAR-TAF

Vliegvelden :

Elsenborn

Bütgenbach, België

breedte: 50-28N, lengte: 006-11E, hoogte: 564 m

Actueel weer

Dit bericht is 43 minuten geleden gemaakt, om 18:55 UTC
Weinig wind
Temperatuur 9°C
Vochtigheid 87%
Druk 1017 hPa
Zicht 10 km of meer

METAR: EBLB 151855Z AUTO 00000KT 9999 NCD 09/07 Q1017 BLU

Tijdstip: 21:38 (19:38 UTC)


TAF: ontbreekt

Waarnemingen en weersverwachtingen van meer dan 4000 vliegvelden (METAR en TAF).

De beschikbare stations zijn de gele en rode punten op de kaart.

Ga met uw muis naar het station om de naam te zien.

Klik dan om waarnemingen en weersverwachtingen te zien.

kaart wijzigen: klik op de groene knoppen met een zwart kruis om in te zoomen, op de groene knop met een streepje om uit te zoomen of op de groene pijlen voor aangrenzende kaarten.


METAR-TAF: